Simultaneous Nadir Overpasses (SNOs) Predictions

Prediction of SNOs between NOAA-19 and TERRA Satellite Orbit:

Table of predicted SNOs for the next 14.0 days since TLE Epoch: 4/2/2016
Index Date (NOAA-19) Time (NOAA-19) Lat,Lon (NOAA-19) SZA (NOAA-19 ) Date (TERRA) Time (TERRA) Lat,Lon (TERRA) SZA (TERRA ) Distance(km) Time Diff (sec)
1 04/02/2016 16:11:58 -73.45, 123.30 111.84 04/02/2016 16:12:35 -73.45, 123.32 111.83 0.78 37
2 04/02/2016 17:02:58 73.36, -69.26 68.08 04/02/2016 17:02:02 73.36, -69.22 68.06 1.41 56
3 04/04/2016 21:46:05 73.44,-140.17 67.31 04/04/2016 21:46:18 73.45,-140.11 67.33 2.26 13
4 04/04/2016 22:37:02 -73.24, 27.55 112.89 04/04/2016 22:35:49 -73.28, 27.19 112.87 12.79 73
5 04/07/2016 02:29:20 73.91, 147.95 66.93 04/07/2016 02:30:29 73.80, 149.57 66.87 51.58 69
6 04/07/2016 03:20:12 -73.43, -43.64 113.53 04/07/2016 03:20:04 -73.43, -43.59 113.54 1.61 8
7 04/09/2016 08:03:18 -73.49,-114.49 114.29 04/09/2016 08:04:19 -73.51,-114.49 114.26 2.58 61
8 04/09/2016 08:54:16 73.40, 52.97 65.62 04/09/2016 08:53:46 73.41, 52.95 65.62 1.56 30
9 04/11/2016 13:37:23 73.49, -17.96 64.90 04/11/2016 13:38:02 73.49, -17.96 64.90 0.49 39
10 04/11/2016 14:28:24 -73.39, 149.50 115.21 04/11/2016 14:27:32 -73.39, 149.46 115.22 1.31 52
11 04/13/2016 19:11:31 -73.46, 78.62 115.94 04/13/2016 19:11:48 -73.47, 78.55 115.93 2.19 17
12 04/13/2016 20:02:28 73.38,-113.93 63.98 04/13/2016 20:01:15 73.36,-114.02 63.95 3.34 73
13 04/15/2016 23:54:48 -74.01, 6.51
